Flag for Moldova Weather past 2 weeks in Tiraspol, Moldova

Now
52 °F

Clear.


Feels Like: 51 °F
Forecast: 52 / 81 °F
Wind: 3 mph from Southwest

Location: Chisinau International Airport

Current Time: Aug 30, 2014 at 1:29:09 AM

Latest Report: Aug 30, 2014 at 1:00 AM


Visibility: 10 mi

Pressure: 30.15 "Hg

Humidity: 77%

Dew point: 45 °F

Location of TiraspolLocation

Historic Weather in Tiraspol — Graph

°F

Tiraspol temperature yesterday

Maximum temperature yesterday: 73 °F (at 1:00 PM)
Minimum temperature yesterday: 48 °F (at 5:30 AM)
Average temperature yesterday: 65 °F

Past Weeks' High & Low Weather Summary

 TemperatureHumidityPressure
High90 °F (Aug 15, 3:30 PM)94% (Aug 22, 2:00 AM)30.15 "Hg (Aug 22, 2:00 AM)
Low48 °F (Aug 29, 5:30 AM)19% (Aug 19, 5:30 PM)29.71 "Hg (Aug 27, 2:30 PM)
Average69 °F58%29.94 "Hg
* Reported Midnight between Aug 14 and Aug 15 — Aug 30 12:30 AM, Tiraspol, Weather by CustomWeather, © 2014

Note: Actual official high and low records may vary slightly from our data, if they occured in-between our weather recording intervals... More about our weather records

Advertising

Tiraspol weather history for previous 24 hours

 ConditionsComfort  
Time TempWeatherWind HumidityBarometerVisibility
12:30 AM
Aug 30
54 °FClear.No wind77%30.15 "Hg10 mi
12:00 AM55 °FClear.No wind72%30.15 "Hg10 mi
10:00 PM
Aug 29
64 °FClear.3 mph46%30.12 "Hg10 mi
9:30 PM63 °FClear.5 mph49%30.12 "Hg10 mi
9:00 PM61 °FClear.6 mph55%30.12 "Hg10 mi
8:30 PM68 °FSunny.2 mph35%30.12 "Hg10 mi
8:00 PM68 °FSunny.3 mph38%30.12 "Hg10 mi
7:30 PM70 °FPassing clouds.7 mph35%30.09 "HgN/A
7:00 PM73 °FPassing clouds.6 mph31%30.09 "HgN/A
6:30 PM73 °FPassing clouds.9 mph29%30.09 "HgN/A
6:00 PM73 °FScattered clouds.7 mph29%30.09 "HgN/A
5:30 PM73 °FScattered clouds.9 mph29%30.09 "HgN/A
5:00 PM73 °FPartly sunny.10 mph31%30.09 "HgN/A
4:30 PM73 °FPartly sunny.10 mph29%30.09 "HgN/A
4:00 PM72 °FPartly sunny.9 mph31%30.09 "HgN/A
3:30 PM73 °FPartly sunny.9 mph27%30.09 "HgN/A
3:00 PM72 °FScattered clouds.9 mph31%30.12 "HgN/A
2:30 PM72 °FPartly sunny.10 mph29%30.12 "HgN/A
2:00 PM73 °FPartly sunny.12 mph25%30.12 "HgN/A
1:30 PM73 °FPartly sunny.10 mph31%30.12 "HgN/A
1:00 PM73 °FPartly sunny.9 mph31%30.12 "HgN/A
12:30 PM72 °FPartly sunny.12 mph33%30.12 "HgN/A
12:00 PM70 °FScattered clouds.7 mph38%30.12 "HgN/A
11:30 AM70 °FScattered clouds.8 mph40%30.12 "HgN/A
11:00 AM68 °FPassing clouds.10 mph46%30.15 "HgN/A
10:30 AM68 °FPassing clouds.10 mph46%30.15 "HgN/A
8:30 AM57 °FSunny.1 mph77%30.12 "Hg10 mi
7:00 AM48 °FClear.1 mph87%30.12 "Hg10 mi
6:30 AM48 °FClear.2 mph87%30.12 "Hg10 mi
5:30 AM48 °FClear.No wind87%30.09 "Hg10 mi
3:30 AM50 °FClear.2 mph88%30.09 "Hg10 mi
3:00 AM52 °FClear.1 mph77%30.09 "Hg10 mi
2:30 AM55 °FClear.3 mph72%30.09 "Hg10 mi
2:00 AM55 °FClear.5 mph72%30.09 "Hg10 mi
1:30 AM55 °FClear.6 mph72%30.09 "Hg10 mi
1:00 AM54 °FPassing clouds.3 mph77%30.09 "HgN/A
Weather by CustomWeather, © 2014

See weather overviewHow to use our weather pages